Location: Boca de Tacagua
(10.5333°N, 66.9833°W)
Time: 10:42:15
(UTC+00:00)

Cosmos 1536 - Visible Passes

Search period start: 02 July 2022 00:00
Search period end: 12 July 2022 00:00
Orbit: 539 x 554 km, 82.5° (Epoch: 01 July)

Date Brightness Start Highest point End Pass type
(mag) Time Alt. Az. Time Alt. Az. Time Alt. Az.
02 Jul 2.8 08:48:28 22° S 08:50:58 80° E 08:54:59 10° N visible
03 Jul 2.7 08:43:53 34° S 08:45:32 87° E 08:49:33 10° N visible
04 Jul 2.7 08:39:16 55° S 08:40:07 86° W 08:44:09 10° N visible
05 Jul 2.6 08:34:36 78° WSW 08:34:42 79° W 08:38:43 10° N visible
06 Jul 3.0 08:29:53 59° NNW 08:29:53 59° NNW 08:33:17 10° N visible
07 Jul 3.7 08:25:08 40° NNW 08:25:08 40° NNW 08:27:50 10° N visible
08 Jul 4.3 08:20:21 28° NNW 08:20:21 28° NNW 08:22:23 10° N visible
09 Jul 4.8 08:15:32 21° NNW 08:15:32 21° NNW 08:16:56 10° N visible
10 Jul 5.2 08:10:41 15° NNW 08:10:41 15° NNW 08:11:29 10° N visible
11 Jul 5.5 08:05:46 11° NNW 08:05:46 11° NNW 08:06:01 10° NNW visible
